IW0UWF-4 Weather Reports


time (UTC)temp
C
wind
direction
speed
KPH
gust
KPH
rain 1hr
cm
rain 24hr
cm
rain mn
cm
humidity
%
barometer
mb
20260504221104 14 0 0.0 0.0 0.00 0.18 0.00 90 1008.1
20260504221004 14 0 0.0 0.0 0.00 0.18 0.00 90 1008.1
20260504220904 14 0 0.0 0.0 0.00 0.18 0.00 90 1008.2
20260504220804 14 270 0.0 4.8 0.00 0.18 0.00 90 1008.1
20260504220704 14 288 0.0 4.8 0.00 0.18 0.00 90 1008.2
20260504220604 14 303 1.6 4.8 0.00 0.18 0.00 90 1008.1
20260504220504 14 303 1.6 4.8 0.00 0.18 0.00 90 1008.1
20260504220404 14 303 1.6 4.8 0.00 0.18 0.00 90 1008.1
20260504220304 14 303 1.6 4.8 0.00 0.18 0.00 90 1008.1
20260504220203 14 303 1.6 4.8 0.00 0.18 0.00 90 1008.1
20260504220103 14 303 1.6 4.8 0.00 0.18 0.00 90 1008.1
20260504220047 14 305 1.6 4.8 0.00 0.18 0.00 90 1008.1
20260504215903 14 262 1.6 4.8 0.00 0.18 0.18 90 1008.1
20260504215803 14 257 1.6 4.8 0.00 0.18 0.18 90 1008.2
20260504215703 14 231 1.6 4.8 0.00 0.18 0.18 90 1008.2
20260504215603 14 208 1.6 3.2 0.00 0.18 0.18 90 1008.2
20260504215506 14 205 1.6 3.2 0.00 0.18 0.18 90 1008.3
20260504215404 14 215 1.6 6.4 0.00 0.18 0.18 90 1008.2
20260504215305 14 240 1.6 6.4 0.00 0.18 0.18 90 1008.2
20260504215204 14 240 1.6 6.4 0.00 0.18 0.18 90 1008.2
20260504215104 14 240 1.6 6.4 0.00 0.18 0.18 90 1008.2
20260504215004 14 250 1.6 6.4 0.00 0.18 0.18 89 1008.2
20260504214904 14 260 1.6 6.4 0.00 0.18 0.18 89 1008.2
20260504214804 14 262 1.6 6.4 0.00 0.18 0.18 89 1008.2
20260504214704 14 261 1.6 6.4 0.00 0.18 0.18 89 1008.2
20260504214604 14 261 1.6 6.4 0.00 0.18 0.18 89 1008.2
20260504214503 14 268 1.6 6.4 0.00 0.18 0.18 89 1008.1
20260504214403 14 285 0.0 6.4 0.00 0.18 0.18 89 1008.2
20260504214303 14 0 0.0 0.0 0.00 0.18 0.18 89 1008.3
20260504214203 14 225 0.0 3.2 0.00 0.18 0.18 89 1008.3
20260504214103 14 254 0.0 3.2 0.00 0.18 0.18 89 1008.4
20260504214003 14 256 0.0 3.2 0.00 0.18 0.18 89 1008.2
20260504213903 14 248 0.0 3.2 0.00 0.18 0.18 89 1008.2
20260504213803 14 240 1.6 3.2 0.00 0.18 0.18 89 1008.4
20260504213703 14 236 1.6 3.2 0.00 0.18 0.18 89 1008.4
20260504213603 14 224 1.6 3.2 0.00 0.18 0.18 89 1008.4
20260504213503 14 227 1.6 3.2 0.00 0.18 0.18 89 1008.3
20260504213404 14 225 1.6 3.2 0.00 0.18 0.18 88 1008.4
20260504213304 14 223 1.6 3.2 0.00 0.18 0.18 88 1008.4
20260504213204 14 223 1.6 3.2 0.00 0.18 0.18 88 1008.4
20260504213104 14 211 1.6 4.8 0.00 0.18 0.18 88 1008.3
20260504213004 14 202 1.6 4.8 0.00 0.18 0.18 88 1008.2
20260504212904 14 201 1.6 4.8 0.00 0.18 0.18 88 1008.4
20260504212804 14 200 1.6 4.8 0.00 0.18 0.18 88 1008.2
20260504212704 14 195 1.6 4.8 0.00 0.18 0.18 88 1008.2
20260504212604 14 202 1.6 4.8 0.00 0.18 0.18 88 1008.3
20260504212504 14 195 1.6 4.8 0.00 0.18 0.18 88 1008.2
20260504212403 14 190 1.6 4.8 0.00 0.18 0.18 88 1008.1
20260504212304 14 195 1.6 4.8 0.00 0.18 0.18 88 1008.2
20260504212203 14 195 1.6 4.8 0.00 0.18 0.18 88 1008.3
20260504212104 14 201 3.2 4.8 0.03 0.18 0.18 88 1008.4
20260504211703 14 247 0.0 4.8 0.03 0.18 0.18 87 1008.3
20260504211603 14 251 0.0 4.8 0.03 0.18 0.18 87 1008.2
20260504211503 14 251 0.0 4.8 0.03 0.18 0.18 87 1008.2
20260504211403 14 254 0.0 4.8 0.03 0.18 0.18 87 1008.2
20260504211303 14 270 0.0 6.4 0.03 0.18 0.18 87 1008.2
20260504211203 14 267 1.6 6.4 0.03 0.18 0.18 87 1008.1
20260504211103 14 253 1.6 6.4 0.03 0.18 0.18 87 1008.2
20260504211003 14 246 1.6 6.4 0.03 0.18 0.18 87 1008.2
20260504210903 14 235 1.6 6.4 0.03 0.18 0.18 87 1008.1
20260504210803 14 241 3.2 6.4 0.03 0.18 0.18 87 1008.3
20260504210704 14 246 3.2 6.4 0.03 0.18 0.18 86 1008.2
20260504210604 14 246 3.2 6.4 0.03 0.18 0.18 86 1008.2
20260504210504 15 243 4.8 9.7 0.03 0.18 0.18 86 1008.3
20260504210404 15 240 4.8 9.7 0.03 0.18 0.18 86 1008.2
20260504210304 15 235 6.4 9.7 0.03 0.18 0.18 86 1008.3
20260504210204 15 227 6.4 9.7 0.03 0.18 0.18 86 1008.4
20260504210104 15 225 6.4 9.7 0.03 0.18 0.18 86 1008.4
20260504210004 15 229 6.4 9.7 0.03 0.18 0.18 86 1008.4
20260504205904 15 237 6.4 9.7 0.03 0.18 0.18 86 1008.5
20260504205803 15 237 6.4 9.7 0.03 0.18 0.18 85 1008.6
20260504205704 15 232 6.4 9.7 0.03 0.18 0.18 85 1008.5
20260504205603 15 232 6.4 9.7 0.03 0.18 0.18 85 1008.7
20260504205503 15 229 6.4 9.7 0.03 0.18 0.18 85 1008.6
20260504205403 15 231 6.4 9.7 0.03 0.18 0.18 85 1008.6
20260504205203 15 237 6.4 8.0 0.03 0.18 0.18 85 1008.4
20260504205103 15 244 6.4 8.0 0.03 0.18 0.18 84 1008.5
20260504205003 15 240 6.4 8.0 0.03 0.18 0.18 84 1008.4
20260504204903 15 230 6.4 8.0 0.03 0.18 0.18 84 1008.4
20260504204803 15 229 6.4 8.0 0.03 0.18 0.18 84 1008.3
20260504204704 15 229 6.4 8.0 0.03 0.18 0.18 84 1008.4
20260504204604 15 223 6.4 8.0 0.03 0.18 0.18 84 1008.3
20260504204504 15 217 6.4 8.0 0.03 0.18 0.18 83 1008.4
20260504204404 15 213 4.8 8.0 0.03 0.18 0.18 83 1008.5
20260504204304 15 204 4.8 8.0 0.03 0.18 0.18 83 1008.5
20260504204204 15 204 3.2 8.0 0.03 0.18 0.18 83 1008.5
20260504204104 15 186 3.2 8.0 0.03 0.18 0.18 83 1008.4
20260504204004 15 177 3.2 6.4 0.03 0.18 0.18 83 1008.3
20260504203904 15 179 3.2 6.4 0.03 0.18 0.18 83 1008.4
20260504203804 15 168 3.2 8.0 0.03 0.18 0.18 83 1008.4
20260504203704 15 178 3.2 8.0 0.03 0.18 0.18 83 1008.4
20260504203604 15 190 3.2 8.0 0.03 0.18 0.18 82 1008.4
20260504203503 15 214 4.8 11.3 0.03 0.18 0.18 82 1008.4
20260504203403 15 228 4.8 11.3 0.03 0.18 0.18 82 1008.5
20260504203303 15 231 6.4 11.3 0.03 0.18 0.18 82 1008.4
20260504203204 15 238 6.4 11.3 0.03 0.18 0.18 82 1008.6
20260504202905 15 250 8.0 11.3 0.03 0.18 0.18 82 1008.6
20260504202803 15 257 8.0 11.3 0.03 0.18 0.18 82 1008.4
20260504202603 15 267 8.0 11.3 0.03 0.18 0.18 81 1008.5
20260504202503 15 266 8.0 11.3 0.03 0.18 0.18 81 1008.4
20260504202403 15 265 8.0 11.3 0.03 0.18 0.18 81 1008.6
20260504202304 15 270 8.0 9.7 0.03 0.18 0.18 81 1008.4
20260504202203 15 264 8.0 9.7 0.00 0.15 0.15 81 1008.5
20260504202104 15 260 8.0 9.7 0.00 0.15 0.15 81 1008.4
20260504201704 15 245 8.0 12.9 0.00 0.15 0.15 80 1008.7
20260504201604 15 252 8.0 12.9 0.00 0.15 0.15 80 1008.6
20260504201504 15 260 8.0 12.9 0.00 0.15 0.15 80 1008.7
20260504201404 15 262 8.0 12.9 0.00 0.15 0.15 80 1008.6
20260504201305 15 264 8.0 12.9 0.00 0.15 0.15 80 1008.7
20260504201204 15 266 8.0 12.9 0.00 0.15 0.15 80 1008.5
20260504201104 15 265 8.0 12.9 0.00 0.15 0.15 80 1008.6
20260504201004 15 270 6.4 12.9 0.00 0.15 0.15 80 1008.5
20260504200904 15 284 6.4 12.9 0.00 0.15 0.15 80 1008.6
20260504200805 15 288 6.4 8.0 0.00 0.15 0.15 80 1008.5
20260504200704 15 285 6.4 8.0 0.00 0.15 0.15 80 1008.6
20260504200604 15 280 6.4 8.0 0.00 0.15 0.15 79 1008.4
20260504200504 15 278 6.4 8.0 0.00 0.15 0.15 79 1008.4
20260504200404 15 280 6.4 8.0 0.00 0.15 0.15 79 1008.4
20260504200304 15 278 6.4 8.0 0.00 0.15 0.15 79 1008.4
20260504200203 15 275 6.4 12.9 0.00 0.15 0.15 79 1008.4
20260504200104 15 278 6.4 12.9 0.00 0.15 0.15 79 1008.4
20260504200004 15 281 8.0 12.9 0.00 0.15 0.15 79 1008.2
20260504195903 16 273 8.0 12.9 0.00 0.15 0.15 78 1008.2
20260504195804 16 268 8.0 12.9 0.00 0.15 0.15 78 1008.4
20260504195704 16 270 9.7 12.9 0.00 0.15 0.15 78 1008.3
20260504195603 16 264 9.7 12.9 0.00 0.15 0.15 78 1008.2
20260504195503 16 260 9.7 12.9 0.00 0.15 0.15 78 1008.3
20260504195403 16 258 9.7 12.9 0.00 0.15 0.15 78 1008.3
20260504195304 16 260 11.3 12.9 0.00 0.15 0.15 78 1008.4
20260504195203 16 260 11.3 12.9 0.00 0.15 0.15 78 1008.4
20260504195104 16 259 11.3 12.9 0.00 0.15 0.15 78 1008.3
20260504195004 16 258 11.3 12.9 0.00 0.15 0.15 78 1008.2
20260504194905 16 264 11.3 12.9 0.00 0.15 0.15 78 1008.2
20260504194804 16 272 11.3 12.9 0.00 0.15 0.15 78 1008.2
20260504194705 16 274 9.7 12.9 0.00 0.15 0.15 78 1008.2
20260504194604 16 277 9.7 12.9 0.00 0.15 0.15 78 1008.3
20260504194504 16 283 9.7 12.9 0.00 0.15 0.15 78 1008.1
20260504194404 16 285 8.0 12.9 0.00 0.15 0.15 78 1008.2
20260504194304 16 285 8.0 12.9 0.00 0.15 0.15 79 1008.1
20260504194204 16 286 8.0 12.9 0.00 0.15 0.15 79 1008.0
20260504194104 16 281 6.4 12.9 0.00 0.15 0.15 79 1007.9
20260504194003 16 278 6.4 12.9 0.00 0.15 0.15 80 1008.0
20260504193904 15 275 4.8 9.7 0.00 0.15 0.15 80 1007.9
20260504193803 15 261 4.8 6.4 0.00 0.15 0.15 80 1008.0
20260504193704 15 256 4.8 6.4 0.00 0.15 0.15 80 1007.9
20260504193603 15 264 3.2 6.4 0.00 0.15 0.15 80 1007.8
20260504193503 15 259 3.2 6.4 0.00 0.15 0.15 80 1007.9
20260504193403 15 258 3.2 6.4 0.00 0.15 0.15 80 1007.8
20260504193304 15 251 3.2 6.4 0.00 0.15 0.15 80 1007.8
20260504193206 15 242 3.2 6.4 0.00 0.15 0.15 80 1007.8
20260504193103 15 246 3.2 6.4 0.00 0.15 0.15 80 1007.8
20260504193003 15 247 3.2 6.4 0.00 0.15 0.15 81 1007.9
20260504192903 15 248 3.2 6.4 0.00 0.15 0.15 81 1007.8
20260504192804 15 252 3.2 6.4 0.00 0.15 0.15 81 1007.8
20260504192704 15 255 4.8 6.4 0.00 0.15 0.15 81 1007.8
20260504192604 15 246 4.8 6.4 0.00 0.15 0.15 81 1007.8
20260504192504 15 242 4.8 6.4 0.00 0.15 0.15 81 1007.8
20260504192404 15 239 4.8 6.4 0.00 0.15 0.15 81 1007.8
20260504192304 15 236 4.8 6.4 0.00 0.15 0.15 81 1007.7
20260504192204 15 241 4.8 6.4 0.00 0.15 0.15 81 1007.8
20260504192104 15 239 4.8 8.0 0.00 0.15 0.15 81 1007.6
20260504191704 15 241 6.4 8.0 0.00 0.15 0.15 81 1007.8
20260504191603 15 240 6.4 11.3 0.00 0.15 0.15 81 1007.6
20260504191504 15 235 6.4 11.3 0.00 0.15 0.15 81 1007.7
20260504191404 15 231 6.4 12.9 0.00 0.15 0.15 81 1007.6
20260504191303 15 231 8.0 12.9 0.00 0.15 0.15 81 1007.7
20260504191203 15 231 8.0 12.9 0.00 0.15 0.15 81 1007.6
20260504191103 15 231 8.0 12.9 0.00 0.15 0.15 81 1007.5
20260504191003 15 224 6.4 12.9 0.00 0.15 0.15 81 1007.5
20260504190903 15 220 8.0 12.9 0.00 0.15 0.15 81 1007.5
20260504190803 15 229 8.0 12.9 0.00 0.15 0.15 81 1007.4
20260504190703 15 230 8.0 12.9 0.00 0.15 0.15 81 1007.6
20260504190603 15 233 8.0 12.9 0.00 0.15 0.15 81 1007.6
20260504190504 15 237 8.0 12.9 0.00 0.15 0.15 81 1007.6
20260504190404 15 247 8.0 12.9 0.00 0.15 0.15 81 1007.5
20260504190304 15 246 8.0 12.9 0.00 0.15 0.15 81 1007.6
20260504190204 15 254 8.0 12.9 0.00 0.15 0.15 81 1007.5
20260504190104 15 256 9.7 12.9 0.00 0.15 0.15 81 1007.6
20260504190004 15 251 9.7 12.9 0.00 0.15 0.15 81 1007.6
20260504185904 15 253 9.7 12.9 0.00 0.15 0.15 81 1007.6
20260504185804 15 249 9.7 12.9 0.00 0.15 0.15 81 1007.6
20260504185704 15 247 9.7 12.9 0.00 0.15 0.15 81 1007.6
20260504185604 15 242 9.7 12.9 0.00 0.15 0.15 81 1007.5
20260504185504 15 235 9.7 12.9 0.00 0.15 0.15 81 1007.5
20260504185404 15 230 9.7 12.9 0.00 0.15 0.15 81 1007.5
20260504185304 15 242 9.7 12.9 0.00 0.15 0.15 81 1007.6
20260504185204 15 237 9.7 12.9 0.00 0.15 0.15 81 1007.6
20260504185103 15 242 9.7 12.9 0.00 0.15 0.15 81 1007.6
20260504185003 15 252 8.0 12.9 0.00 0.15 0.15 81 1007.5
20260504184904 15 260 8.0 12.9 0.00 0.15 0.15 81 1007.6
20260504184803 15 260 8.0 12.9 0.00 0.15 0.15 81 1007.5
20260504184703 15 266 8.0 12.9 0.00 0.15 0.15 81 1007.7
20260504184603 15 275 8.0 12.9 0.00 0.15 0.15 81 1007.5
20260504184504 15 282 8.0 12.9 0.00 0.15 0.15 81 1007.5
20260504184404 15 285 8.0 12.9 0.00 0.15 0.15 81 1007.6
20260504184304 15 280 8.0 14.5 0.00 0.15 0.15 81 1007.4
20260504184204 15 276 9.7 14.5 0.00 0.15 0.15 81 1007.5
20260504184104 15 279 9.7 14.5 0.00 0.15 0.15 81 1007.6
20260504184004 15 273 9.7 14.5 0.00 0.15 0.15 81 1007.6
20260504183904 15 270 9.7 14.5 0.00 0.15 0.15 81 1007.5
20260504183804 15 274 9.7 14.5 0.00 0.15 0.15 81 1007.4
20260504183704 15 270 9.7 14.5 0.00 0.15 0.15 81 1007.3
20260504183604 15 263 9.7 14.5 0.00 0.15 0.15 81 1007.5
20260504183504 15 263 11.3 14.5 0.00 0.15 0.15 81 1007.5
20260504183403 15 256 11.3 14.5 0.00 0.15 0.15 81 1007.3
20260504183303 15 254 9.7 14.5 0.00 0.15 0.15 80 1007.3
20260504183203 15 254 9.7 12.9 0.00 0.15 0.15 80 1007.4
20260504183103 15 254 9.7 12.9 0.00 0.15 0.15 80 1007.5
20260504183003 15 262 9.7 12.9 0.00 0.15 0.15 80 1007.3
20260504182903 15 261 9.7 12.9 0.00 0.15 0.15 80 1007.3
20260504182803 15 254 9.7 12.9 0.00 0.15 0.15 80 1007.4
20260504182703 15 259 9.7 12.9 0.00 0.15 0.15 80 1007.4
20260504182603 15 267 9.7 12.9 0.00 0.15 0.15 80 1007.5
20260504182504 15 256 8.0 12.9 0.00 0.15 0.15 80 1007.5
20260504182404 15 267 8.0 12.9 0.00 0.15 0.15 79 1007.4
20260504182304 15 300 8.0 12.9 0.00 0.15 0.15 79 1007.5
20260504182204 15 336 8.0 12.9 0.00 0.15 0.15 79 1007.5
20260504182104 15 333 9.7 12.9 0.00 0.15 0.15 79 1007.4
20260504181704 16 280 9.7 12.9 0.00 0.15 0.15 78 1007.5
20260504181604 16 278 11.3 14.5 0.00 0.15 0.15 78 1007.6
20260504181503 16 288 11.3 16.1 0.00 0.15 0.15 77 1007.5
20260504181404 16 298 11.3 16.1 0.00 0.15 0.15 77 1007.5
20260504181303 16 314 12.9 16.1 0.00 0.15 0.15 77 1007.6
20260504181203 16 326 12.9 16.1 0.00 0.15 0.15 77 1007.6
20260504181103 16 335 12.9 16.1 0.00 0.15 0.15 76 1007.6
20260504181003 16 347 12.9 16.1 0.00 0.15 0.15 76 1007.5
20260504180903 16 344 14.5 17.7 0.00 0.15 0.15 76 1007.6
20260504180803 16 334 14.5 17.7 0.00 0.15 0.15 76 1007.6
20260504180704 16 331 14.5 17.7 0.00 0.15 0.15 76 1007.5
20260504180605 16 334 14.5 17.7 0.00 0.15 0.15 76 1007.7
20260504180504 16 335 14.5 17.7 0.00 0.15 0.15 75 1007.5
20260504180404 16 326 12.9 17.7 0.00 0.15 0.15 75 1007.6
20260504180304 16 313 12.9 17.7 0.00 0.15 0.15 75 1007.5
20260504180204 16 294 11.3 17.7 0.00 0.15 0.15 75 1007.5
20260504180104 16 277 11.3 17.7 0.00 0.15 0.15 75 1007.8
20260504180004 16 256 9.7 17.7 0.00 0.15 0.15 75 1007.7
20260504175904 16 247 9.7 17.7 0.00 0.15 0.15 75 1007.7
20260504175804 16 249 8.0 12.9 0.00 0.15 0.15 75 1007.7
20260504175704 16 255 8.0 16.1 0.00 0.15 0.15 75 1007.7
20260504175603 16 265 9.7 16.1 0.00 0.15 0.15 75 1007.5
20260504175503 16 277 9.7 16.1 0.00 0.15 0.15 75 1007.7
20260504175403 16 288 9.7 16.1 0.00 0.15 0.15 74 1007.7
20260504175304 16 291 11.3 16.1 0.00 0.15 0.15 74 1007.6
20260504175203 16 308 11.3 16.1 0.00 0.15 0.15 74 1007.8
20260504175103 17 306 11.3 16.1 0.00 0.15 0.15 74 1007.7
20260504175003 17 308 11.3 16.1 0.00 0.15 0.15 74 1007.8
20260504174903 17 307 11.3 16.1 0.00 0.15 0.15 74 1007.8
20260504174804 17 296 11.3 16.1 0.00 0.15 0.15 74 1007.8
20260504174704 17 297 11.3 16.1 0.00 0.15 0.15 74 1007.7
20260504174604 17 280 9.7 12.9 0.00 0.15 0.15 74 1007.7
20260504174504 17 273 9.7 16.1 0.00 0.15 0.15 74 1007.7
20260504174404 17 265 9.7 16.1 0.00 0.15 0.15 73 1007.7
20260504174304 17 263 9.7 16.1 0.00 0.15 0.15 73 1007.8
20260504174204 17 256 9.7 16.1 0.00 0.15 0.15 73 1007.8
20260504174104 17 254 9.7 16.1 0.00 0.15 0.15 73 1007.8
20260504174004 17 244 9.7 16.1 0.00 0.15 0.15 73 1007.7
20260504173903 17 248 11.3 16.1 0.00 0.15 0.15 73 1007.7
20260504173803 17 249 11.3 16.1 0.00 0.15 0.15 73 1007.7
20260504173703 17 240 11.3 16.1 0.00 0.15 0.15 70 1007.7
20260504173603 17 239 11.3 16.1 0.00 0.15 0.15 70 1007.7
20260504173503 17 238 11.3 12.9 0.00 0.15 0.15 70 1007.7
20260504173403 17 241 11.3 12.9 0.00 0.15 0.15 70 1007.7
20260504173303 17 248 11.3 12.9 0.00 0.15 0.15 70 1007.8
20260504173203 17 253 11.3 12.9 0.00 0.15 0.15 70 1007.7
20260504173103 17 265 11.3 12.9 0.00 0.15 0.15 70 1007.8
20260504173003 17 277 11.3 12.9 0.00 0.15 0.15 70 1007.7
20260504172904 17 272 11.3 12.9 0.00 0.15 0.15 70 1007.7
20260504172804 17 276 11.3 12.9 0.00 0.15 0.15 70 1007.6
20260504172704 17 287 9.7 12.9 0.00 0.15 0.15 70 1007.8
20260504172604 17 299 9.7 12.9 0.00 0.15 0.15 70 1007.8
20260504172504 17 307 9.7 12.9 0.00 0.15 0.15 70 1007.8
20260504172404 17 316 9.7 12.9 0.00 0.15 0.15 70 1007.8
20260504172304 17 321 9.7 12.9 0.00 0.15 0.15 70 1007.6
20260504172204 17 311 9.7 12.9 0.00 0.15 0.15 70 1007.7
20260504172105 17 294 11.3 12.9 0.00 0.15 0.15 70 1007.6
20260504171704 17 262 9.7 16.1 0.00 0.15 0.15 70 1007.8
20260504171604 17 263 9.7 16.1 0.00 0.15 0.15 70 1007.8
20260504171504 17 269 8.0 16.1 0.00 0.15 0.15 70 1007.8
20260504171403 17 270 8.0 16.1 0.00 0.15 0.15 70 1007.7
20260504171304 17 269 8.0 16.1 0.00 0.15 0.15 70 1007.6
20260504171204 17 264 8.0 16.1 0.00 0.15 0.15 70 1007.7
20260504171103 18 257 8.0 16.1 0.00 0.15 0.15 70 1007.5
20260504171003 18 260 8.0 16.1 0.00 0.15 0.15 70 1007.7
20260504170903 18 261 8.0 16.1 0.00 0.15 0.15 70 1007.8
20260504170803 18 256 8.0 16.1 0.00 0.15 0.15 70 1007.6
20260504170703 18 249 6.4 12.9 0.00 0.15 0.15 70 1007.7
20260504170603 18 240 6.4 12.9 0.00 0.15 0.15 70 1007.7
20260504170504 18 232 4.8 12.9 0.00 0.15 0.15 70 1007.6
20260504170403 18 218 4.8 9.7 0.00 0.15 0.15 70 1007.6
20260504170303 18 215 4.8 9.7 0.00 0.15 0.15 70 1007.3
20260504170203 18 210 3.2 9.7 0.00 0.15 0.15 70 1007.6
20260504160403 19 180 3.2 4.8 0.00 0.15 0.15 65 1007.7
20260504160303 19 179 3.2 4.8 0.00 0.15 0.15 65 1007.7
20260504160203 19 177 1.6 4.8 0.00 0.15 0.15 65 1007.8
20260504160104 19 175 1.6 4.8 0.00 0.15 0.15 65 1007.6
20260504151103 18 219 3.2 12.9 0.00 0.15 0.15 67 1007.8
20260504151003 18 209 1.6 12.9 0.00 0.15 0.15 67 1007.6
20260504150903 18 213 1.6 12.9 0.00 0.15 0.15 67 1007.6
20260504150804 18 215 1.6 12.9 0.00 0.15 0.15 67 1007.7
20260504150704 18 216 1.6 12.9 0.00 0.15 0.15 67 1007.7
20260504150604 18 226 1.6 12.9 0.00 0.15 0.15 67 1007.9
20260504150504 18 257 1.6 4.8 0.00 0.15 0.15 67 1007.8
20260504150404 18 260 1.6 4.8 0.00 0.15 0.15 67 1007.8
20260504150304 18 250 1.6 4.8 0.00 0.15 0.15 67 1007.6
20260504150204 18 238 1.6 4.8 0.00 0.15 0.15 67 1007.8
20260504150104 18 231 3.2 4.8 0.00 0.15 0.15 67 1007.7
20260504141304 19 199 3.2 6.4 0.00 0.15 0.15 61 1008.1
20260504141204 19 193 3.2 6.4 0.00 0.15 0.15 61 1008.1
20260504141104 19 184 3.2 6.4 0.00 0.15 0.15 61 1008.1
20260504141004 19 185 3.2 6.4 0.00 0.15 0.15 61 1008.1
20260504140904 19 182 3.2 6.4 0.00 0.15 0.15 61 1008.1
20260504140804 19 190 3.2 6.4 0.00 0.15 0.15 61 1008.1
20260504140704 19 194 3.2 6.4 0.00 0.15 0.15 61 1008.1
20260504140604 19 191 3.2 6.4 0.00 0.15 0.15 61 1008.1
20260504140504 19 193 3.2 6.4 0.00 0.15 0.15 60 1008.1
20260504140404 19 191 3.2 6.4 0.00 0.15 0.15 60 1008.0
20260504140304 19 199 3.2 8.0 0.00 0.15 0.15 60 1008.1
20260504140203 19 202 4.8 8.0 0.00 0.15 0.15 60 1008.0
20260504140103 19 206 4.8 11.3 0.00 0.15 0.15 60 1008.1
20260504130803 21 213 4.8 12.9 0.00 0.15 0.15 52 1008.4
20260504130703 21 210 3.2 12.9 0.00 0.15 0.15 53 1008.2
20260504130603 21 212 4.8 8.0 0.00 0.15 0.15 53 1008.4
20260504130503 21 218 4.8 8.0 0.00 0.15 0.15 53 1008.4
20260504130403 21 221 4.8 8.0 0.00 0.15 0.15 53 1008.4
20260504130303 21 221 4.8 8.0 0.00 0.15 0.15 53 1008.3
20260504130203 21 216 4.8 8.0 0.00 0.15 0.15 53 1008.4
20260504130103 21 219 4.8 8.0 0.00 0.15 0.15 53 1008.3
20260504120303 20 217 4.8 8.0 0.00 0.15 0.15 50 1008.5
20260504120203 20 223 4.8 8.0 0.00 0.15 0.15 50 1008.5
20260504120103 20 242 4.8 12.9 0.00 0.15 0.15 50 1008.5
20260504110703 21 158 0.0 1.6 0.00 0.15 0.15 46 1008.5
20260504110603 21 158 0.0 1.6 0.00 0.15 0.15 46 1008.5
20260504110503 21 169 0.0 3.2 0.00 0.15 0.15 46 1008.5
20260504110403 21 216 0.0 3.2 0.00 0.15 0.15 45 1008.5
20260504110304 22 236 1.6 3.2 0.00 0.15 0.15 45 1008.6
20260504110203 22 236 1.6 3.2 0.00 0.15 0.15 45 1008.5
20260504110103 22 236 1.6 3.2 0.00 0.15 0.15 44 1008.5
20260504100603 22 206 1.6 9.7 0.00 0.15 0.15 41 1008.8
20260504100503 22 208 1.6 9.7 0.00 0.15 0.15 41 1008.7
20260504100403 22 219 3.2 9.7 0.00 0.15 0.15 41 1008.7
20260504100304 22 219 3.2 9.7 0.00 0.15 0.15 41 1008.7
20260504100204 22 215 3.2 9.7 0.00 0.15 0.15 41 1008.7
20260504100104 22 216 4.8 9.7 0.00 0.15 0.15 41 1008.7
20260504081704 20 180 1.6 6.4 0.00 0.15 0.15 46 1008.5
20260504081604 20 180 1.6 6.4 0.00 0.15 0.15 46 1008.6
20260504081504 19 180 1.6 6.4 0.00 0.15 0.15 46 1008.5
20260504081404 19 180 1.6 6.4 0.00 0.15 0.15 46 1008.6
20260504081303 19 180 1.6 6.4 0.00 0.15 0.15 45 1008.6
20260504081203 19 180 1.6 6.4 0.00 0.15 0.15 46 1008.6
20260504081103 19 180 1.6 6.4 0.00 0.15 0.15 45 1008.7
20260504081003 18 180 0.0 3.2 0.00 0.15 0.15 46 1008.6
20260504080903 18 0 0.0 0.0 0.00 0.15 0.15 46 1008.8
20260504080803 18 0 0.0 0.0 0.00 0.15 0.15 46 1008.8
20260504080703 17 0 0.0 0.0 0.00 0.15 0.15 44 1008.7
20260504080603 17 0 0.0 0.0 0.00 0.15 0.15 44 1008.6
20260504080503 17 0 0.0 0.0 0.00 0.15 0.15 44 1008.5
20260504080403 17 0 0.0 0.0 0.00 0.15 0.15 44 1008.6
20260504080305 17 0 0.0 0.0 0.00 0.15 0.15 44 1008.6
20260504080204 17 135 0.0 3.2 0.00 0.15 0.15 44 1008.8
20260504080104 17 190 0.0 3.2 0.00 0.15 0.15 44 1008.7
20260504070403 16 0 0.0 0.0 0.00 0.15 0.15 50 1008.5
20260504070303 16 0 0.0 0.0 0.00 0.15 0.15 50 1008.5
20260504070203 16 0 0.0 0.0 0.00 0.15 0.15 50 1008.5
20260504060203 13 0 0.0 0.0 0.00 0.15 0.15 62 1008.4